TimeCST,TemperatureF,Dew PointF,Humidity,Sea Level PressureIn,VisibilityMPH,Wind Direction,Wind SpeedMPH,Gust SpeedMPH,PrecipitationIn,Events,Conditions,WindDirDegrees,DateUTC
12:53 AM,35.1,26.1,70,30.03,10.0,NNE,25.3,35.7,N/A,,Overcast,20,2013-11-21 06:53:00
1:53 AM,32.0,24.1,73,30.07,10.0,NNE,23.0,32.2,N/A,,Scattered Clouds,20,2013-11-21 07:53:00
2:53 AM,30.0,19.9,66,30.11,10.0,North,20.7,34.5,N/A,,Overcast,10,2013-11-21 08:53:00
3:25 AM,28.4,19.4,69,30.14,9.0,North,25.3,32.2,N/A,,Overcast,360,2013-11-21 09:25:00
3:53 AM,27.0,17.1,66,30.18,9.0,North,24.2,-,N/A,,Overcast,350,2013-11-21 09:53:00
4:51 AM,26.6,15.8,64,30.17,10.0,North,24.2,-,N/A,,Overcast,360,2013-11-21 10:51:00
4:53 AM,26.1,15.1,63,30.19,10.0,North,19.6,29.9,N/A,,Overcast,10,2013-11-21 10:53:00
5:53 AM,23.0,12.9,65,30.25,10.0,NNE,23.0,31.1,N/A,,Overcast,20,2013-11-21 11:53:00
6:53 AM,21.9,10.9,63,30.28,10.0,North,25.3,32.2,N/A,,Overcast,10,2013-11-21 12:53:00
7:53 AM,21.9,12.0,66,30.31,10.0,North,16.1,29.9,N/A,,Overcast,360,2013-11-21 13:53:00
8:29 AM,21.2,12.2,68,30.29,10.0,North,15.0,-,N/A,,Overcast,360,2013-11-21 14:29:00
8:53 AM,21.0,10.0,63,30.39,10.0,North,18.4,-,N/A,,Overcast,360,2013-11-21 14:53:00
9:53 AM,21.0,10.0,63,30.41,10.0,North,18.4,-,N/A,,Overcast,360,2013-11-21 15:53:00
10:53 AM,21.0,10.0,63,30.44,10.0,North,16.1,26.5,N/A,,Overcast,360,2013-11-21 16:53:00
11:53 AM,21.0,10.0,63,30.44,10.0,North,19.6,-,N/A,,Overcast,10,2013-11-21 17:53:00
12:05 PM,21.2,10.4,63,30.35,10.0,North,21.9,-,N/A,,Overcast,360,2013-11-21 18:05:00
12:15 PM,21.2,10.4,63,30.36,7.0,North,21.9,-,0.00,Snow,Light Snow,350,2013-11-21 18:15:00
12:51 PM,21.2,12.2,68,30.36,6.0,North,19.6,-,0.00,,Haze,360,2013-11-21 18:51:00
12:53 PM,21.0,12.0,68,30.45,5.0,North,17.3,-,0.00,Snow,Light Snow,350,2013-11-21 18:53:00
1:40 PM,19.4,12.2,74,30.37,2.0,North,20.7,28.8,0.00,Snow,Light Snow,350,2013-11-21 19:40:00
1:51 PM,19.4,12.2,74,30.37,3.0,North,20.7,27.6,0.00,Snow,Light Snow,350,2013-11-21 19:51:00
1:53 PM,19.9,12.9,74,30.47,3.0,North,21.9,27.6,0.00,Snow,Light Snow,350,2013-11-21 19:53:00
1:57 PM,19.4,12.2,74,30.37,1.8,North,20.7,-,0.00,Snow,Light Snow,350,2013-11-21 19:57:00
2:07 PM,19.4,12.2,74,30.38,0.8,NNW,19.6,-,0.00,Snow,Light Snow,340,2013-11-21 20:07:00
2:39 PM,19.4,12.2,74,30.40,1.2,North,20.7,-,0.00,Snow,Light Snow,350,2013-11-21 20:39:00
2:53 PM,19.0,12.9,77,30.50,2.5,North,19.6,-,0.00,Snow,Light Snow,350,2013-11-21 20:53:00
3:02 PM,19.4,12.2,74,30.40,3.0,North,20.7,27.6,0.00,Snow,Light Snow,350,2013-11-21 21:02:00
3:53 PM,18.0,12.0,78,30.55,4.0,NNW,20.7,26.5,0.00,Snow,Light Snow,340,2013-11-21 21:53:00
4:08 PM,17.6,12.2,79,30.45,1.8,North,17.3,-,0.00,Snow,Light Snow,350,2013-11-21 22:08:00
4:32 PM,17.6,12.2,79,30.45,1.2,North,17.3,25.3,0.00,Snow,Light Snow,350,2013-11-21 22:32:00
4:53 PM,18.0,12.9,81,30.57,1.2,North,16.1,-,0.00,Snow,Light Snow,350,2013-11-21 22:53:00
5:20 PM,17.6,12.2,79,30.46,2.0,North,18.4,-,0.00,Snow,Light Snow,350,2013-11-21 23:20:00
5:29 PM,17.6,12.2,79,30.46,4.0,North,20.7,26.5,0.00,Snow,Light Snow,350,2013-11-21 23:29:00
5:53 PM,17.1,10.9,77,30.60,10.0,North,19.6,-,0.00,,Overcast,350,2013-11-21 23:53:00
6:53 PM,17.1,10.0,74,30.64,10.0,North,23.0,-,N/A,,Overcast,350,2013-11-22 00:53:00
7:53 PM,17.1,10.0,74,30.69,10.0,NNW,19.6,26.5,N/A,,Overcast,340,2013-11-22 01:53:00
8:53 PM,18.0,10.0,71,30.71,10.0,NNW,20.7,-,N/A,,Overcast,340,2013-11-22 02:53:00
9:53 PM,18.0,9.0,68,30.73,10.0,NNW,16.1,-,N/A,,Overcast,340,2013-11-22 03:53:00
10:53 PM,17.1,9.0,71,30.74,10.0,North,11.5,-,N/A,,Overcast,350,2013-11-22 04:53:00
11:53 PM,17.1,8.1,68,30.77,10.0,NNW,13.8,-,N/A,,Overcast,340,2013-11-22 05:53:00